Torna al catalogo

EXPLORER 20

AttivoScienzaLEO
NORAD 870·PAYLOAD·🇺🇸 United States

Lanciato Aug 25, 1964 da Vandenberg Space Force Base

Loading…

Prossimi Passaggi (prossime 24 ore)

TLE

AggiornatoSource: Space-Track

Epoca: Sep 14, 2026, 12:37 UTC

1 00870U 64051A   26257.52572108  .00000114  00000-0  80364-4 0  9994
2 00870  79.9002 181.5185 0097855  48.9730 311.9834 13.91806299145869

Traccia EXPLORER 20 in tempo reale con AllMySat

Download on the App Store